Content
SEND FEEDBACK

Daily
Averages
Monthly
Summary
United States of America

WILMINGTON, NORTH CAROLINA


Home > North America > United States > North Carolina
Elevation: 72 feet     Latitude: 34 16N     Longitude: 077 54W

WEATHER
 
SELECT A DAY
Number of Records: 208,628;   Date Range: 1/1/95 - 7/20/14
 
SHARE

PRINT THIS DATA

[ ← Previous Day ]
WEATHER ALMANAC - SEPTEMBER 1, 2013
[ Next Day → ]
[ °C ]   °F
Weather ElementAverageHighLow
Temperature81.8 °F90 °F (12:53 pm)75.9 °F (1:53 am)
Dewpoint74.1 °F75.9 °F (7:53 am)71.1 °F (1:53 pm)
Humidity79.1 %97 % (4:53 am)54 % (1:53 pm)
Barometer29.91 in29.95 in (9:11 am)29.85 in (4:53 pm)
Wind Speed8.4 mph16.1 mph (3:53 pm)
Wind Gust19.6 mph (1:53 pm)
Weather ElementAverage
Visibility9.4 mi
Wind DirectionSSW (216.5 °)

Weather ElementTotal
Precipitation---
Cooling Degree Days18 (Base 65)
Growing Degree Days33 (Base 50)
Averaged from 26 records on September 1, 2013
WEATHER CONDITIONS BREAKOUT
WIND DIRECTION BREAKOUT
WEATHER BY HOUR - SEPTEMBER 1, 2013
[ °C ]   °F
Local TimeTemperatureDewpointHumidityBarometerVisibilityWind DirectionWind SpeedGust SpeedPrecipitationEventsConditions
1:53 AM75.9 °F73.9 °F94 %29.93 in10.0 miSSW (200°)3.5 mphClear
2:53 AM77.0 °F73.9 °F90 %29.91 in10.0 miSSW (210°)5.8 mphClear
3:53 AM75.9 °F73.9 °F94 %29.91 in10.0 miSSW (210°)4.6 mphClear
4:53 AM75.9 °F75.0 °F97 %29.90 in9.0 miSW (220°)4.6 mphClear
5:53 AM75.9 °F73.9 °F94 %29.91 in7.0 miSW (220°)3.5 mphClear
6:53 AM75.9 °F73.9 °F94 %29.92 in5.0 miWSW (240°)3.5 mphClear
7:53 AM78.1 °F75.9 °F93 %29.93 in6.0 miSW (230°)5.8 mphClear
8:08 AM78.8 °F75.2 °F89 %29.93 in8.0 miSW (230°)6.9 mphPartly Cloudy
8:23 AM78.8 °F75.2 °F89 %29.94 in9.0 miSW (220°)8.1 mphMostly Cloudy
8:53 AM79.0 °F75.9 °F90 %29.94 in10.0 miSW (230°)6.9 mphMostly Cloudy
9:11 AM80.6 °F75.2 °F84 %29.95 in10.0 miSW (230°)8.1 mphScattered Clouds
9:53 AM84.0 °F75.0 °F74 %29.95 in10.0 miWSW (240°)8.1 mphClear
10:53 AM87.1 °F73.0 °F63 %29.95 in10.0 miWSW (240°)8.1 mphPartly Cloudy
11:53 AM89.1 °F72.0 °F57 %29.94 in10.0 miSSW (200°)11.5 mphPartly Cloudy
12:53 PM90.0 °F72.0 °F55 %29.92 in10.0 miSW (230°)10.4 mphPartly Cloudy
1:53 PM90.0 °F71.1 °F54 %29.91 in10.0 miWSW (250°)11.5 mph19.6 mphClear
2:53 PM90.0 °F73.0 °F57 %29.88 in10.0 miSW (220°)9.2 mph0.00 inClear
3:53 PM89.1 °F73.0 °F59 %29.86 in10.0 miSSW (210°)16.1 mphClear
4:53 PM87.1 °F73.9 °F65 %29.85 in10.0 miSSW (200°)15.0 mphClear
5:53 PM86.0 °F75.0 °F70 %29.86 in10.0 miSSW (200°)10.4 mphPartly Cloudy
6:53 PM84.0 °F73.0 °F69 %29.86 in10.0 miSSW (200°)6.9 mphClear
7:53 PM81.0 °F73.9 °F79 %29.88 in10.0 miSSW (200°)10.4 mphClear
8:53 PM80.1 °F75.0 °F85 %29.89 in10.0 miSSW (200°)11.5 mphClear
9:53 PM79.0 °F75.0 °F88 %29.90 in10.0 miSouth (190°)8.1 mphClear
10:53 PM80.1 °F75.0 °F85 %29.91 in10.0 miSSW (210°)11.5 mph17.3 mphClear
11:53 PM79.0 °F75.0 °F88 %29.91 in10.0 miSSW (200°)9.2 mphClear
Hourly data recorded from KILM, located miles away from Wilmington, North Carolina







STORIES FROM OUR PARTNERS